Home > Weather > Clarington > Past weeks

Flag for Canada Weather for the Past 2 Weeks in Clarington, Ontario, Canada

Now
50 °F

Broken clouds.


Feels Like: 45 °F
Forecast: 38 / 52 °F
Wind: 13 mph from East

Location: Peterborough Airport

Current Time: Apr 29, 2016 at 12:36:00 PM

Latest Report: Apr 29, 2016 at 12:00 PM


Visibility: 9 mi

Pressure: 30.10 "Hg

Humidity: 30%

Dew Point: 19 °F

Location of ClaringtonLocation

Historic Weather in Clarington — Graph

°F

Clarington Temperature Yesterday

Maximum temperature yesterday: 48 °F (at 12:00 PM)
Minimum temperature yesterday: 28 °F (at 5:00 AM)
Average temperature yesterday: 40 °F

High & Low Weather Summary for the Past Weeks

 TemperatureHumidityPressure
High73 °F (Apr 17, 3:00 PM)100% (Apr 15, 2:00 AM)30.50 "Hg (Apr 15, 2:00 AM)
Low23 °F (Apr 15, 6:00 AM)20% (Apr 16, 5:00 PM)29.78 "Hg (Apr 22, 6:00 AM)
Average46 °F62%30.16 "Hg
* Reported Apr 14 11:00 AM — Apr 29 11:00 AM, Clarington, Weather by CustomWeather, © 2016

Note: Actual official high and low records may vary slightly from our data, if they occured in-between our weather recording intervals... More about our weather records

Advertising

Clarington Weather History for the Previous 24 Hours

Scroll right to see more
 ConditionsComfort  
Time TempWeatherWind HumidityBarometerVisibility
11:00 AM
Fri, Apr 29
48 °FPartly sunny.10 mph34%30.11 "Hg9 mi
10:00 AM46 °FScattered clouds.12 mph37%30.12 "Hg9 mi
9:00 AM43 °FSunny.12 mph42%30.13 "Hg9 mi
8:00 AM39 °FSunny.9 mph56%30.13 "Hg9 mi
7:00 AM36 °FClear.5 mph70%30.13 "Hg9 mi
6:00 AM36 °FClear.7 mph70%30.11 "Hg9 mi
5:00 AM36 °FPartly cloudy.5 mph70%30.11 "Hg9 mi
4:00 AM37 °FOvercast.3 mph70%30.11 "Hg9 mi
3:00 AM39 °FOvercast.3 mph65%30.11 "Hg9 mi
2:00 AM39 °FOvercast.3 mph65%30.11 "Hg9 mi
1:00 AM37 °FOvercast.2 mph81%30.11 "Hg9 mi
12:00 AM39 °FOvercast.2 mph75%30.10 "Hg9 mi
11:00 PM
Thu, Apr 28
39 °FPassing clouds.No wind81%30.11 "Hg9 mi
10:00 PM39 °FPassing clouds.No wind81%30.11 "Hg9 mi
9:00 PM39 °FPartly sunny.No wind75%30.10 "Hg9 mi
8:00 PM43 °FOvercast.2 mph66%30.09 "Hg9 mi
7:00 PM45 °FOvercast.2 mph57%30.09 "Hg9 mi
6:00 PM45 °FOvercast.3 mph57%30.08 "Hg9 mi
5:00 PM46 °FOvercast.8 mph53%30.06 "Hg9 mi
4:00 PM48 °FOvercast.8 mph46%30.06 "Hg9 mi
3:00 PM46 °FOvercast.10 mph50%30.07 "Hg9 mi
2:00 PM48 °FPartly sunny.12 mph46%30.08 "Hg9 mi
1:00 PM48 °FScattered clouds.3 mph40%30.09 "Hg9 mi
12:00 PM48 °FSunny.6 mph37%30.11 "Hg9 mi
Weather by CustomWeather, © 2016

See weather overviewHow to use our weather pages